Home > Weather > Stuttgart > Past weeks

Flag for Germany Past Weather in Stuttgart, Baden-Württemberg, Germany — Yesterday and Last 2 Weeks

Now
82 °F

Passing clouds.


Feels Like: 83 °F
Forecast: 60 / 78 °F
Wind: 7 mph from Southwest

Location: Stuttgart-Echterdingen

Current Time: Aug 28, 2016 at 12:36:41 PM

Latest Report: Aug 28, 2016 at 11:50 AM


Visibility: N/A

Pressure: 30.04 "Hg

Humidity: 51%

Dew Point: 63 °F

Location of StuttgartLocation

Past Weather in Stuttgart — Graph

°F

Stuttgart Temperature Yesterday

Maximum temperature yesterday: 91 °F (at 2:50 PM)
Minimum temperature yesterday: 61 °F (at 5:50 AM)
Average temperature yesterday: 77 °F

High & Low Weather Summary for the Past Weeks

 TemperatureHumidityPressure
High91 °F (Aug 27, 2:50 PM)100% (Aug 14, 5:50 AM)30.42 "Hg (Aug 14, 5:50 AM)
Low54 °F (Aug 22, 1:50 AM)26% (Aug 27, 6:20 PM)29.83 "Hg (Aug 18, 5:20 AM)
Average69 °F68%30.10 "Hg
* Reported Aug 13 11:20 AM — Aug 28 11:20 AM, Stuttgart, Weather by CustomWeather, © 2016

Note: Actual official high and low records may vary slightly from our data, if they occured in-between our weather recording intervals... More about our weather records

Advertising

Stuttgart Weather History for the Previous 24 Hours

Scroll right to see more
 ConditionsComfort  
Time TempWeatherWind HumidityBarometerVisibility
11:20 AM
Sun, Aug 28
84 °FPassing clouds.6 mph45%30.07 "HgN/A
10:50 AM82 °FPassing clouds.3 mph51%30.07 "HgN/A
10:20 AM81 °FPassing clouds.5 mph48%30.07 "HgN/A
9:50 AM79 °FPassing clouds.2 mph51%30.07 "HgN/A
9:20 AM77 °FPassing clouds.5 mph61%30.07 "HgN/A
8:50 AM72 °FPassing clouds.2 mph69%30.07 "HgN/A
8:20 AM70 °FScattered clouds.6 mph73%30.07 "HgN/A
7:50 AM68 °FThundershowers. Scattered clouds.10 mph78%30.04 "HgN/A
7:20 AM72 °FThunderstorms. Passing clouds.7 mph69%30.07 "HgN/A
6:50 AM72 °FThunderstorms. Partly cloudy.7 mph73%30.04 "HgN/A
6:20 AM72 °FThunderstorms. Passing clouds.5 mph73%30.04 "HgN/A
5:50 AM73 °FPassing clouds.2 mph65%30.04 "HgN/A
5:20 AM72 °FClear.1 mph69%30.04 "Hg10 mi
4:50 AM68 °FClear.1 mph78%30.04 "Hg10 mi
4:20 AM68 °FClear.5 mph78%30.04 "Hg10 mi
3:50 AM68 °FClear.2 mph78%30.04 "Hg10 mi
3:20 AM68 °FClear.No wind78%30.04 "Hg10 mi
2:50 AM70 °FClear.1 mph73%30.04 "Hg10 mi
2:20 AM70 °FClear.2 mph73%30.04 "Hg10 mi
1:50 AM70 °FClear.1 mph73%30.04 "Hg10 mi
1:20 AM72 °FClear.2 mph69%30.04 "Hg10 mi
12:50 AM72 °FClear.2 mph69%30.04 "Hg10 mi
12:20 AM72 °FClear.1 mph69%30.04 "Hg10 mi
11:50 PM
Sat, Aug 27
73 °FClear.1 mph61%30.04 "Hg10 mi
11:20 PM73 °FClear.3 mph61%30.04 "Hg10 mi
10:50 PM75 °FClear.No wind57%30.04 "Hg10 mi
10:20 PM75 °FClear.2 mph61%30.04 "Hg10 mi
9:50 PM77 °FClear.3 mph57%30.04 "Hg10 mi
9:20 PM77 °FPassing clouds.3 mph61%30.04 "HgN/A
8:50 PM79 °FPassing clouds.5 mph58%30.04 "HgN/A
8:20 PM82 °FSunny.7 mph51%30.04 "Hg10 mi
7:50 PM86 °FSunny.6 mph40%30.01 "Hg10 mi
7:20 PM90 °FSunny.2 mph33%30.01 "Hg10 mi
6:50 PM91 °FSunny.2 mph26%30.01 "Hg10 mi
6:20 PM91 °FPassing clouds.3 mph26%30.04 "HgN/A
5:50 PM91 °FPassing clouds.5 mph28%30.04 "HgN/A
5:20 PM91 °FSunny.2 mph30%30.04 "Hg10 mi
4:50 PM91 °FPassing clouds.5 mph32%30.04 "HgN/A
4:20 PM91 °FSunny.5 mph30%30.04 "Hg10 mi
3:50 PM91 °FPassing clouds.6 mph34%30.04 "HgN/A
3:20 PM91 °FSunny.2 mph30%30.07 "Hg10 mi
2:50 PM91 °FPassing clouds.6 mph36%30.07 "HgN/A
2:20 PM90 °FSunny.2 mph41%30.07 "Hg10 mi
1:50 PM90 °FSunny.3 mph41%30.07 "Hg10 mi
1:20 PM90 °FSunny.3 mph38%30.09 "Hg10 mi
12:50 PM88 °FPassing clouds.5 mph49%30.09 "HgN/A
12:20 PM86 °FSunny.3 mph49%30.09 "Hg10 mi
Weather by CustomWeather, © 2016

See weather overviewHow to use our weather pages